Flag for France Weather past 2 weeks in Istres, France

Now
41 °F

Clear.


Feels Like: 34 °F
Forecast: 36 / 58 °F
Wind: 12 mph from Northeast

Location: Istres Airport

Current Time: Mar 6, 2015 at 5:21:29 AM

Latest Report: Mar 6, 2015 at 4:30 AM


Visibility: N/A

Pressure: 30.36 "Hg

Humidity: 53%

Dew point: 25 °F

Location of IstresLocation

Historic Weather in Istres — Graph

°F

Istres temperature yesterday

Maximum temperature yesterday: 54 °F (at 3:00 PM)
Minimum temperature yesterday: 43 °F (at 6:00 AM)
Average temperature yesterday: 47 °F

Past Weeks' High & Low Weather Summary

 TemperatureHumidityPressure
High64 °F (Mar 2, 12:30 PM)100% (Feb 20, 12:30 AM)30.51 "Hg (Feb 20, 12:30 AM)
Low34 °F (Feb 19, 6:30 AM)30% (Feb 25, 5:30 PM)29.53 "Hg (Feb 22, 2:30 AM)
Average48 °F66%30.00 "Hg
* Reported Feb 19 3:00 AM — Mar 6 3:30 AM, Istres, Weather by CustomWeather, © 2015

Note: Actual official high and low records may vary slightly from our data, if they occured in-between our weather recording intervals... More about our weather records

Advertising

Istres weather history for previous 24 hours

 ConditionsComfort  
Time TempWeatherWind HumidityBarometerVisibility
3:30 AM
Fri, Mar 6
43 °FClear.17 mph49%30.36 "HgN/A
3:00 AM43 °FClear.16 mph49%30.36 "HgN/A
2:30 AM45 °FClear.18 mph42%30.36 "HgN/A
2:00 AM45 °FClear.21 mph46%30.33 "HgN/A
1:30 AM45 °FClear.21 mph46%30.33 "HgN/A
1:00 AM46 °FClear.22 mph40%30.33 "HgN/A
12:30 AM45 °FClear.21 mph46%30.30 "HgN/A
12:00 AM46 °FClear.23 mph43%30.30 "HgN/A
11:30 PM
Thu, Mar 5
46 °FClear.25 mph43%30.30 "HgN/A
11:00 PM46 °FClear.28 mph43%30.27 "HgN/A
10:30 PM46 °FClear.28 mph43%30.27 "HgN/A
9:30 PM48 °FClear.30 mph40%30.27 "HgN/A
9:00 PM48 °FClear.31 mph40%30.27 "HgN/A
8:30 PM48 °FClear.30 mph40%30.24 "HgN/A
8:00 PM48 °FClear.29 mph40%30.24 "HgN/A
7:30 PM48 °FClear.32 mph40%30.24 "HgN/A
7:00 PM50 °FClear.32 mph37%30.24 "HgN/A
6:30 PM50 °FClear.32 mph37%30.21 "HgN/A
6:00 PM50 °FClear.29 mph37%30.21 "HgN/A
5:30 PM52 °FClear.32 mph38%30.18 "HgN/A
5:00 PM52 °FClear.31 mph38%30.18 "HgN/A
4:30 PM52 °FClear.36 mph35%30.18 "HgN/A
4:00 PM54 °FClear.31 mph33%30.18 "HgN/A
3:30 PM52 °FClear.32 mph38%30.18 "HgN/A
3:00 PM54 °FClear.35 mph33%30.18 "HgN/A
2:30 PM52 °FClear.35 mph35%30.18 "HgN/A
2:00 PM52 °FClear.36 mph35%30.18 "HgN/A
1:30 PM52 °FClear.38 mph35%30.18 "HgN/A
1:00 PM52 °FClear.38 mph35%30.21 "HgN/A
12:30 PM50 °FClear.37 mph37%30.21 "HgN/A
12:00 PM50 °FClear.41 mph37%30.18 "HgN/A
11:30 AM48 °FCool.43 mph40%30.18 "HgN/A
11:00 AM48 °FClear.44 mph40%30.18 "HgN/A
10:30 AM46 °FClear.46 mph46%30.15 "HgN/A
10:00 AM46 °FClear.45 mph46%30.18 "HgN/A
9:30 AM45 °FClear.40 mph49%30.18 "HgN/A
9:00 AM45 °FClear.41 mph49%30.15 "HgN/A
8:30 AM45 °FClear.41 mph49%30.15 "HgN/A
8:00 AM43 °FClear.43 mph53%30.12 "HgN/A
7:30 AM43 °FClear.43 mph53%30.12 "HgN/A
7:00 AM43 °FClear.43 mph53%30.12 "HgN/A
6:30 AM43 °FClear.37 mph53%30.12 "HgN/A
6:00 AM43 °FClear.37 mph53%30.12 "HgN/A
5:30 AM45 °FClear.37 mph53%30.12 "HgN/A
5:00 AM45 °FClear.38 mph49%30.09 "HgN/A
Weather by CustomWeather, © 2015

See weather overviewHow to use our weather pages